Location: ????????
(60.4333°N, 46.4710°E)
Time: 18:06:00
(UTC+00:00)

Cosmos 540 Rocket - Pass Details

Date: 25 November 2020
Orbit: 740 x 753 km, 74.1° (Epoch: 16 January)

Event Time Altitude Azimuth Distance (km) Brightness Sun altitude
Rises 13:19:59 0° 189° (S) 3,179 7.3 -8.6°
Reaches altitude 10° 13:22:24 10° 184° (S) 2,257 6.4 -8.9°
Maximum altitude 13:27:17 47° 111° (ESE) 980 3.8 -9.4°
Drops below altitude 10° 13:32:11 10° 39° (NE) 2,266 5.4 -10.0°
Enters shadow 13:32:12 10° 39° (NE) 2,277 5.4 -10.0°
